Weather History for Cullman, AL

Change the Weather History Date:

Thursday, September 6, 2012

  Actual Average (KHSV) Record (KHSV)
Temperature  
Mean Temperature 76 °F 77 °F  
Max Temperature 87 °F 88 °F 107 °F (1925)
Min Temperature 66 °F 66 °F 50 °F (1957)
Degree Days  
Heating Degree Days 0 0  
Month to date heating degree days 0  
Since 1 July heating degree days 0  
Cooling Degree Days 12 12  
Month to date cooling degree days 76  
Year to date cooling degree days 1671  
Growing Degree Days 26 (Base 50)    
Moisture  
Dew Point 69 °F    
Average Humidity 82    
Maximum Humidity 99    
Minimum Humidity 55    
Precipitation  
Precipitation 0.00 in 0.12 in 2.64 in (1949)
Month to date precipitation 0.67  
Year to date precipitation 36.99  
Snow  
Snow 0.00 in - - ()
Month to date snowfall  
Since 1 July snowfall  
Since 1 September snowfall  
Snow Depth -    
Sea Level Pressure  
Sea Level Pressure 29.99 in    
Wind  
Wind Speed 1 mph (NNW)    
Max Wind Speed 7 mph    
Max Gust Speed -    
Visibility 9 miles    
Events Thunderstorm    
T = Trace of Precipitation, MM = Missing Value Source: NWS Daily Summary

Daily Weather History Graph

Daily Weather History Graph

Search for Another Location

Airport:

Trip Planner

Search our weather history database for the weather conditions in past years. The results will help you decide how hot, cold, wet, or windy it might be!

Date:

Astronomy

Sep. 06, 2012 Rise Set
Actual Time 6:24 AM CDT 7:05 PM CDT
Civil Twilight 5:59 AM CDT 7:31 PM CDT
Nautical Twilight 5:29 AM CDT 8:01 PM CDT
Astronomical Twilight 4:58 AM CDT 8:31 PM CDT
Moon 10:34 PM CDT (9/6) 12:05 PM CDT (9/6)
Length of Visible Light 13h 32m
Length of Day
12h 41m
Waning Gibbous, 67% of the Moon is Illuminated
Sep 6
Waning Gibbous
Sep 8
Last Quarter
Sep 15
New
Sep 22
First Quarter
Sep 29
Full

Hourly Weather History & Observations

Time (CDT) Temp. Heat Index Dew Point Humidity Pressure Visibility Wind Dir Wind Speed Gust Speed Precip Events Conditions
12:15 AM 68.9 °F - 66.4 °F 92% 29.97 in 10.0 mi Calm Calm - N/A   Clear
12:35 AM 68.9 °F - 66.7 °F 93% 29.96 in 10.0 mi Calm Calm - N/A   Clear
1:15 AM 69.3 °F - 66.9 °F 92% 29.94 in 10.0 mi Calm Calm - N/A   Scattered Clouds
1:55 AM 69.3 °F - 66.7 °F 92% 29.93 in 10.0 mi Calm Calm - N/A   Clear
2:15 AM 68.9 °F - 66.7 °F 93% 29.93 in 10.0 mi SW 3.5 mph - N/A   Clear
2:35 AM 68.9 °F - 66.7 °F 93% 29.93 in 10.0 mi SSW 3.5 mph - N/A   Clear
2:55 AM 68.9 °F - 66.9 °F 93% 29.92 in 10.0 mi South 5.8 mph - N/A   Clear
3:35 AM 68.5 °F - 66.7 °F 94% 29.94 in 10.0 mi Calm Calm - N/A   Scattered Clouds
3:55 AM 68.7 °F - 66.7 °F 93% 29.94 in 10.0 mi Calm Calm - N/A   Scattered Clouds
4:15 AM 68.2 °F - 66.7 °F 95% 29.95 in 10.0 mi NNE 3.5 mph - N/A   Scattered Clouds
4:35 AM 67.3 °F - 66.6 °F 98% 29.95 in 10.0 mi Calm Calm - N/A   Clear
4:55 AM 66.4 °F - 66.0 °F 99% 29.96 in 10.0 mi Calm Calm - N/A   Scattered Clouds
5:15 AM 66.0 °F - 65.7 °F 99% 29.97 in 10.0 mi Calm Calm - N/A   Scattered Clouds
5:35 AM 66.2 °F - 65.8 °F 99% 29.97 in 0.8 mi Calm Calm - N/A   Overcast
5:55 AM 66.6 °F - 66.4 °F 99% 29.98 in 2.0 mi Calm Calm - N/A   Overcast
6:15 AM 66.6 °F - 66.4 °F 99% 29.99 in 5.0 mi Calm Calm - N/A   Scattered Clouds
6:35 AM 66.4 °F - 66.2 °F 99% 29.99 in 10.0 mi Calm Calm - N/A Thunderstorm Scattered Clouds
6:55 AM 66.7 °F - 66.2 °F 98% 30.00 in 10.0 mi Calm Calm - N/A   Scattered Clouds
7:15 AM 67.5 °F - 66.6 °F 97% 30.01 in 10.0 mi Calm Calm - N/A   Scattered Clouds
7:35 AM 68.5 °F - 67.1 °F 95% 30.01 in 10.0 mi Calm Calm - N/A   Mostly Cloudy
7:55 AM 69.6 °F - 67.8 °F 94% 30.01 in 10.0 mi Calm Calm - N/A   Scattered Clouds
8:15 AM 71.4 °F - 68.4 °F 90% 30.01 in 10.0 mi Calm Calm - N/A   Scattered Clouds
8:35 AM 73.2 °F - 68.5 °F 85% 30.02 in 10.0 mi SW 4.6 mph - N/A   Scattered Clouds
8:55 AM 74.5 °F - 68.0 °F 80% 30.02 in 10.0 mi Calm Calm - N/A   Scattered Clouds
9:15 AM 74.8 °F - 68.0 °F 79% 30.03 in 10.0 mi Calm Calm - N/A   Scattered Clouds
9:55 AM 76.8 °F - 68.7 °F 76% 30.04 in 10.0 mi NW 3.5 mph - N/A   Clear
10:15 AM 79.2 °F - 69.3 °F 72% 30.04 in 10.0 mi NW 3.5 mph - N/A   Clear
10:35 AM 79.9 °F - 69.6 °F 71% 30.04 in 10.0 mi North 4.6 mph - N/A   Clear
10:55 AM 80.2 °F 83.5 °F 70.2 °F 71% 30.04 in 10.0 mi NW 4.6 mph - N/A   Clear
11:15 AM 81.3 °F 85.0 °F 70.3 °F 69% 30.04 in 10.0 mi NNE 4.6 mph - N/A   Clear
11:35 AM 81.5 °F 85.3 °F 70.3 °F 69% 30.04 in 10.0 mi NNW 5.8 mph - N/A   Clear
11:55 AM 82.0 °F 85.9 °F 70.2 °F 67% 30.03 in 10.0 mi North 6.9 mph - N/A   Clear
12:15 PM 82.8 °F 86.4 °F 69.4 °F 64% 30.03 in 10.0 mi NNW 5.8 mph - N/A   Clear
12:35 PM 83.5 °F 87.2 °F 69.3 °F 62% 30.03 in 10.0 mi North 4.6 mph - N/A   Clear
12:55 PM 83.8 °F 87.0 °F 68.4 °F 59% 30.02 in 10.0 mi North 3.5 mph - N/A   Clear
1:15 PM 84.9 °F 88.5 °F 68.7 °F 58% 30.01 in 10.0 mi WSW 3.5 mph - N/A   Clear
1:35 PM 85.6 °F 90.1 °F 69.8 °F 59% 30.01 in 10.0 mi NNW 4.6 mph - N/A   Scattered Clouds
1:55 PM 85.6 °F 90.1 °F 69.8 °F 59% 30.01 in 10.0 mi Calm Calm - N/A   Clear
2:15 PM 86.4 °F 91.4 °F 70.7 °F 59% 30.00 in 10.0 mi NNE 3.5 mph - N/A   Clear
2:35 PM 86.2 °F 91.4 °F 71.1 °F 60% 30.00 in 10.0 mi Calm Calm - N/A   Clear
2:55 PM 86.0 °F 91.1 °F 70.5 °F 60% 29.99 in 10.0 mi North 6.9 mph - N/A   Scattered Clouds
3:15 PM 86.7 °F 91.4 °F 69.6 °F 57% 29.99 in 10.0 mi Calm Calm - N/A   Clear
3:35 PM 86.9 °F 91.3 °F 69.6 °F 56% 29.98 in 10.0 mi Calm Calm - N/A   Clear
3:55 PM 87.1 °F 91.3 °F 69.3 °F 55% 29.98 in 10.0 mi NNW 3.5 mph - N/A   Clear
4:15 PM 86.9 °F 91.7 °F 69.8 °F 57% 29.97 in 10.0 mi North 3.5 mph - N/A   Clear
4:35 PM 86.9 °F 91.3 °F 69.4 °F 56% 29.97 in 10.0 mi Calm Calm - N/A   Scattered Clouds
4:55 PM 87.1 °F 91.6 °F 69.4 °F 56% 29.96 in 10.0 mi Calm Calm - N/A   Clear
5:15 PM 87.3 °F 92.0 °F 70.0 °F 56% 29.96 in 10.0 mi Calm Calm - N/A   Clear
5:35 PM 87.3 °F 92.0 °F 70.0 °F 56% 29.96 in 10.0 mi Calm Calm - N/A   Clear
5:55 PM 86.7 °F 91.7 °F 70.2 °F 58% 29.96 in 10.0 mi Calm Calm - N/A   Clear
6:15 PM 85.6 °F 91.1 °F 71.4 °F 62% 29.96 in 10.0 mi Calm Calm - N/A   Clear
6:35 PM 82.9 °F 88.5 °F 72.9 °F 71% 29.96 in 10.0 mi Calm Calm - N/A   Clear
6:55 PM 79.5 °F - 73.6 °F 82% 29.97 in 10.0 mi Calm Calm - N/A   Clear
7:15 PM 76.8 °F - 72.9 °F 88% 29.98 in 10.0 mi Calm Calm - N/A   Clear
7:35 PM 74.8 °F - 72.0 °F 91% 29.98 in 10.0 mi Calm Calm - N/A   Clear
7:55 PM 73.4 °F - 71.8 °F 95% 29.98 in 10.0 mi Calm Calm - N/A   Clear
8:15 PM 72.9 °F - 71.8 °F 96% 29.99 in 10.0 mi Calm Calm - N/A   Clear
8:35 PM 72.1 °F - 71.2 °F 97% 29.99 in 10.0 mi Calm Calm - N/A   Clear
8:55 PM 72.0 °F - 71.2 °F 98% 30.00 in 10.0 mi Calm Calm - N/A   Clear
9:15 PM 71.4 °F - 70.9 °F 98% 29.99 in 7.0 mi Calm Calm - N/A   Clear
9:35 PM 71.2 °F - 70.9 °F 99% 29.99 in 7.0 mi Calm Calm - N/A   Clear
9:55 PM 70.7 °F - 70.3 °F 99% 29.99 in 5.0 mi Calm Calm - N/A   Clear
10:15 PM 70.0 °F - 69.8 °F 99% 30.00 in 5.0 mi Calm Calm - N/A   Clear
10:35 PM 69.8 °F - 69.4 °F 99% 30.00 in 10.0 mi Calm Calm - N/A   Clear
10:55 PM 69.4 °F - 69.1 °F 99% 30.01 in 7.0 mi Calm Calm - N/A   Clear
11:15 PM 70.0 °F - 69.4 °F 98% 30.01 in 10.0 mi Calm Calm - N/A   Clear
11:35 PM 69.1 °F - 68.5 °F 98% 30.01 in 5.0 mi Calm Calm - N/A   Clear
11:55 PM 68.9 °F - 68.4 °F 98% 30.01 in 10.0 mi Calm Calm - N/A   Clear